User: anonymous   Login
Location: Unspecified
(0.0000°N, 0.0000°E)
Time: 00:09:36
(UTC+00:00)
Language:

Picosat 5 - Orbit

View from above orbital plane
View from above orbital plane
View from above satellite
View from above satellite

Ground track
Ground track

The orbit data is extracted from the following two-line orbital elements,

1 26093U 00004L   17265.34934991  .00000350  00000-0  10357-3 0  9994
2 26093 100.1913  32.2701 0031298 125.3462 235.0659 14.51180274928921
Epoch (UTC): 22 September 2017 08:23:03
Eccentricity: 0.0031298
inclination: 100.1913°
perigee height: 699 km
apogee height: 744 km
right ascension of ascending node: 32.2701°
argument of perigee: 125.3462°
revolutions per day: 14.51180274
mean anomaly at epoch: 235.0659°
orbit number at epoch: 92892

The dashed part of the orbit path shows where the satellite is in the earth's shadow,  

DLR